Regional Weather Roundup
Issued by NWS

Home | Current Version | Previous Version | Text Only | Print | Product List | Glossary Off
Versions: 1 2 3 4 5 6 7 8 9 10 11 12 13 14 15 16 17 18 19 20 21 22 23 24 25 26 27 28 29 30 31 32 33 34 35 36 37 38 39 40 41 42 43 44 45 46 47 48 49 50

000
ASUS43 KLSX 121959
RWRMO

WEATHER SUMMARY FOR MISSOURI
NATIONAL WEATHER SERVICE SPRINGFIELD MO
300 PM CDT SAT JUL 12 2014

NOTE: "FAIR" INDICATES FEW OR NO CLOUDS BELOW 12,000 FEET WITH NO
       SIGNIFICANT WEATHER AND/OR OBSTRUCTIONS TO VISIBILITY.
       CURRENT SKY AND/OR WEATHER CONDITIONS ARE NOT AVAILABLE FOR
       CHILLICOTHE AND FARMINGTON.

MOZ001>031-035>038-043-044-053-054-122100-
...NORTHERN AND WESTERN MISSOURI...

CITY           SKY/WX    TMP DP  RH WIND       PRES   REMARKS
KANSAS CTY INT MOSUNNY   90  72  55 SW14      30.02S HX  97
KANSAS C DTWN  MOSUNNY   93  69  45 W8        30.00F HX  98
LEE`S SUMMIT   SUNNY     90  71  53 SW13      30.04S HX  96
ST JOSEPH      SUNNY     91  74  57 S15       29.99S HX 100
CHILLICOTHE      N/A     91  72  53 S7        30.01S HX  98
KIRKSVILLE     MOSUNNY   88  75  65 S12       30.03F HX  97

$$
MOZ066>068-077>081-088>096-101>105-122100-
...SOUTHWEST MISSOURI...

CITY           SKY/WX    TMP DP  RH WIND       PRES   REMARKS
SPRINGFIELD    MOSUNNY   90  69  50 SW10      30.12S HX  94
JOPLIN         MOSUNNY   92  66  42 SW12      30.09F HX  94

$$
MOZ032>034-039>042-045>050-055>058-069>072-122100-
...CENTRAL MISSOURI...

CITY           SKY/WX    TMP DP  RH WIND       PRES   REMARKS
COLUMBIA       PTSUNNY   90  72  55 SW10      30.07F HX  97
JEFFERSON CITY MOSUNNY   91  70  49 SW9       30.05F HX  96
ROLLA          MOSUNNY   93  66  40 SW12G17   30.09F HX  96
SEDALIA        SUNNY     91  73  55 SW15G21   30.06F HX  99
OSAGE BEACH    MOSUNNY   90  70  51 SW7       30.09S HX  95

$$
MOZ051-052-059>065-122100-
...EAST CENTRAL MISSOURI...

CITY           SKY/WX    TMP DP  RH WIND       PRES   REMARKS
ST LOUIS INTL  PTSUNNY   94  70  45 SW12      30.06F HX 100
SPIRIT OF STL  PTSUNNY   93  68  43 SW9       30.05F HX  97
ST CHARLES     MOSUNNY   92  71  50 S8        30.04F HX  98

$$
MOZ072>076-082>087-097>100-106>115-122100-
...SOUTH CENTRAL AND SOUTHEAST MISSOURI...

CITY           SKY/WX    TMP DP  RH WIND       PRES   REMARKS
CAPE GIRARDEAU PTSUNNY   92  73  53 VRB3      30.09F HX 100
FARMINGTON     MOSUNNY   91  70  49 CALM      30.12F HX  97
POPLAR BLUFF   MOSUNNY   91  73  55 S7        30.08F HX  99
WEST PLAINS    MOSUNNY   89  70  53 SW8       30.14F HX  94

$$



USA.gov is the U.S. government's official web portal to all federal, state and local government web resources and services.